Flag Weather past 2 weeks in Cupertino, California, U.S.A.

Now
57 °F

Overcast.


Feels Like: 57 °F
Forecast: 57 / 65 °F
Wind: 5 mph from Northeast

Location: Moffett Field

Current Time: Oct 31, 2014 at 3:24:10 PM

Latest Report: Oct 31, 2014 at 2:56 PM


Visibility: 10 mi

Pressure: 29.82 "Hg

Humidity: 100%

Dew point: 57 °F

Location of CupertinoLocation

Historic Weather in Cupertino — Graph

°F

Cupertino temperature yesterday

Maximum temperature yesterday: 77 °F (at 12:56 PM)
Minimum temperature yesterday: 57 °F (at 3:56 AM)
Average temperature yesterday: 64 °F

Past Weeks' High & Low Weather Summary

 TemperatureHumidityPressure
High79 °F (Oct 29, 2:56 PM)100% (Oct 19, 4:56 AM)30.19 "Hg (Oct 19, 4:56 AM)
Low49 °F (Oct 27, 5:56 AM)32% (Oct 29, 2:56 PM)29.84 "Hg (Oct 31, 1:56 PM)
Average63 °F71%30.01 "Hg
* Reported Oct 16 1:56 PM — Oct 31 1:56 PM, Cupertino, Weather by CustomWeather, © 2014

Note: Actual official high and low records may vary slightly from our data, if they occured in-between our weather recording intervals... More about our weather records

Advertising

Cupertino weather history for previous 24 hours

 ConditionsComfort  
Time TempWeatherWind HumidityBarometerVisibility
1:56 PM
Oct 31
58 °FLight rain. Fog.7 mph100%29.84 "Hg4 mi
12:56 PM59 °FLight rain. Fog.5 mph93%29.87 "Hg2 mi
11:56 AM65 °FMostly cloudy.7 mph78%29.87 "Hg10 mi
10:56 AM63 °FMostly cloudy.7 mph87%29.88 "Hg10 mi
9:56 AM63 °FLight rain. Mostly cloudy.10 mph87%29.90 "Hg10 mi
8:56 AM62 °FLight rain. Overcast.8 mph90%29.88 "Hg10 mi
7:56 AM62 °FOvercast.6 mph86%29.88 "Hg10 mi
6:56 AM62 °FClear.6 mph80%29.88 "Hg10 mi
5:56 AM62 °FClear.8 mph80%29.85 "Hg10 mi
4:56 AM63 °FPassing clouds.9 mph78%29.88 "Hg10 mi
3:56 AM61 °FPassing clouds.3 mph87%29.90 "Hg10 mi
2:56 AM62 °FPassing clouds.5 mph83%29.91 "Hg10 mi
1:56 AM62 °FOvercast.10 mph83%29.92 "Hg10 mi
12:56 AM62 °FOvercast.3 mph90%29.93 "Hg10 mi
11:56 PM
Oct 30
61 °FClear.3 mph90%29.93 "Hg10 mi
10:56 PM61 °FClear.5 mph87%29.92 "Hg10 mi
9:56 PM62 °FClear.No wind83%29.91 "Hg10 mi
8:56 PM63 °FClear.6 mph90%29.90 "Hg10 mi
7:56 PM63 °FClear.5 mph87%29.89 "Hg10 mi
6:56 PM65 °FSunny.3 mph85%29.90 "Hg10 mi
5:56 PM67 °FSunny.7 mph68%29.88 "Hg10 mi
4:56 PM68 °FSunny.8 mph68%29.90 "Hg10 mi
3:56 PM71 °FSunny.3 mph55%29.91 "Hg10 mi
Weather by CustomWeather, © 2014

See weather overviewHow to use our weather pages